TimeCST,TemperatureF,Dew PointF,Humidity,Sea Level PressureIn,VisibilityMPH,Wind Direction,Wind SpeedMPH,Gust SpeedMPH,PrecipitationIn,Events,Conditions,WindDirDegrees,DateUTC
12:15 AM,19.4,14.0,80,30.31,10.0,North,5.8,-,N/A,,Mostly Cloudy,350,2013-02-16 06:15:00
12:35 AM,19.4,14.0,80,30.31,10.0,Calm,Calm,-,N/A,,Mostly Cloudy,0,2013-02-16 06:35:00
12:55 AM,17.6,12.2,79,30.31,10.0,NW,3.5,-,N/A,,Overcast,310,2013-02-16 06:55:00
1:15 AM,17.6,12.2,79,30.30,10.0,NNW,3.5,-,N/A,,Overcast,330,2013-02-16 07:15:00
1:35 AM,17.6,12.2,79,30.29,10.0,Calm,Calm,-,N/A,,Scattered Clouds,0,2013-02-16 07:35:00
1:55 AM,15.8,10.4,79,30.30,10.0,WNW,6.9,-,N/A,,Clear,290,2013-02-16 07:55:00
2:15 AM,15.8,10.4,79,30.29,10.0,WNW,5.8,-,N/A,,Partly Cloudy,290,2013-02-16 08:15:00
2:35 AM,15.8,10.4,79,30.29,10.0,NW,4.6,-,N/A,,Partly Cloudy,310,2013-02-16 08:35:00
2:55 AM,15.8,10.4,79,30.28,10.0,NNW,3.5,-,N/A,,Clear,330,2013-02-16 08:55:00
3:15 AM,15.8,12.2,86,30.27,10.0,North,3.5,-,N/A,,Clear,350,2013-02-16 09:15:00
3:35 AM,15.8,10.4,79,30.26,10.0,West,3.5,-,N/A,,Clear,280,2013-02-16 09:35:00
3:55 AM,15.8,10.4,79,30.26,10.0,West,3.5,-,N/A,,Clear,260,2013-02-16 09:55:00
4:15 AM,14.0,10.4,86,30.26,10.0,WSW,5.8,-,N/A,,Clear,250,2013-02-16 10:15:00
4:35 AM,14.0,10.4,86,30.26,10.0,WSW,5.8,-,N/A,,Clear,240,2013-02-16 10:35:00
5:15 AM,15.8,12.2,86,30.24,10.0,SSW,5.8,-,N/A,,Clear,210,2013-02-16 11:15:00
5:35 AM,15.8,12.2,86,30.24,10.0,SW,5.8,-,N/A,,Mostly Cloudy,220,2013-02-16 11:35:00
5:55 AM,15.8,12.2,86,30.24,10.0,SW,5.8,-,N/A,,Scattered Clouds,230,2013-02-16 11:55:00
6:15 AM,15.8,12.2,86,30.23,10.0,SW,5.8,-,N/A,,Scattered Clouds,220,2013-02-16 12:15:00
6:35 AM,15.8,12.2,86,30.22,10.0,SW,5.8,-,N/A,,Mostly Cloudy,230,2013-02-16 12:35:00
6:55 AM,14.0,12.2,93,30.22,10.0,SW,6.9,-,N/A,,Mostly Cloudy,220,2013-02-16 12:55:00
7:15 AM,14.0,12.2,93,30.22,7.0,SSW,5.8,-,N/A,,Overcast,210,2013-02-16 13:15:00
7:35 AM,14.0,12.2,93,30.21,7.0,SSW,6.9,-,N/A,,Scattered Clouds,200,2013-02-16 13:35:00
7:55 AM,14.0,10.4,86,30.20,8.0,South,5.8,-,N/A,,Clear,170,2013-02-16 13:55:00
8:15 AM,14.0,12.2,93,30.20,9.0,South,5.8,-,N/A,,Clear,180,2013-02-16 14:15:00
8:35 AM,15.8,14.0,93,30.19,9.0,South,6.9,-,N/A,,Clear,180,2013-02-16 14:35:00
8:55 AM,17.6,15.8,93,30.20,10.0,South,8.1,-,N/A,,Clear,170,2013-02-16 14:55:00
9:15 AM,19.4,15.8,86,30.19,10.0,SSW,8.1,-,N/A,,Clear,200,2013-02-16 15:15:00
9:35 AM,19.4,15.8,86,30.18,10.0,SSW,9.2,-,N/A,,Clear,210,2013-02-16 15:35:00
12:15 PM,30.2,19.4,64,30.11,10.0,SW,15.0,-,N/A,,Overcast,220,2013-02-16 18:15:00
12:35 PM,30.2,19.4,64,30.10,10.0,SSW,13.8,-,N/A,,Overcast,200,2013-02-16 18:35:00
12:55 PM,30.2,19.4,64,30.09,10.0,SSW,13.8,-,N/A,,Overcast,200,2013-02-16 18:55:00
1:15 PM,30.2,21.2,69,30.09,10.0,SW,13.8,-,N/A,,Overcast,220,2013-02-16 19:15:00
1:35 PM,30.2,21.2,69,30.08,10.0,SW,12.7,18.4,N/A,,Overcast,230,2013-02-16 19:35:00
1:55 PM,30.2,21.2,69,30.08,10.0,SSW,12.7,-,N/A,,Overcast,210,2013-02-16 19:55:00
2:15 PM,30.2,21.2,69,30.07,10.0,SSW,11.5,-,N/A,,Overcast,200,2013-02-16 20:15:00
2:35 PM,30.2,23.0,75,30.07,10.0,SSW,9.2,-,N/A,,Overcast,210,2013-02-16 20:35:00
2:55 PM,30.2,23.0,75,30.06,10.0,SSW,8.1,-,N/A,,Overcast,200,2013-02-16 20:55:00
3:15 PM,30.2,23.0,75,30.06,10.0,South,8.1,-,N/A,,Mostly Cloudy,180,2013-02-16 21:15:00
3:35 PM,30.2,23.0,75,30.06,10.0,South,6.9,-,N/A,,Overcast,170,2013-02-16 21:35:00
3:55 PM,30.2,23.0,75,30.07,10.0,South,8.1,-,N/A,,Overcast,180,2013-02-16 21:55:00
4:15 PM,30.2,23.0,75,30.07,10.0,South,8.1,-,N/A,,Overcast,190,2013-02-16 22:15:00
4:35 PM,30.2,21.2,69,30.06,10.0,South,9.2,-,N/A,,Overcast,180,2013-02-16 22:35:00
4:55 PM,30.2,21.2,69,30.06,10.0,South,9.2,-,N/A,,Overcast,190,2013-02-16 22:55:00
5:15 PM,30.2,23.0,75,30.05,10.0,SSE,11.5,-,N/A,,Overcast,160,2013-02-16 23:15:00
5:35 PM,30.2,23.0,75,30.05,10.0,South,9.2,-,N/A,,Overcast,180,2013-02-16 23:35:00
5:55 PM,30.2,23.0,75,30.05,10.0,SSE,9.2,-,N/A,,Overcast,160,2013-02-16 23:55:00
6:15 PM,30.2,23.0,75,30.05,10.0,SSE,8.1,-,N/A,,Overcast,160,2013-02-17 00:15:00
6:35 PM,30.2,23.0,75,30.05,10.0,SSE,9.2,-,N/A,,Overcast,150,2013-02-17 00:35:00
6:55 PM,30.2,23.0,75,30.05,10.0,SE,8.1,-,N/A,,Overcast,140,2013-02-17 00:55:00
7:15 PM,30.2,23.0,75,30.05,10.0,SE,8.1,-,N/A,,Overcast,140,2013-02-17 01:15:00
7:35 PM,30.2,23.0,75,30.05,10.0,SE,8.1,-,N/A,,Overcast,140,2013-02-17 01:35:00
7:55 PM,30.2,23.0,75,30.04,10.0,SE,10.4,-,N/A,,Overcast,140,2013-02-17 01:55:00
8:15 PM,30.2,23.0,75,30.03,10.0,SE,10.4,-,N/A,,Overcast,140,2013-02-17 02:15:00
8:35 PM,30.2,23.0,75,30.03,10.0,SE,9.2,-,N/A,,Overcast,140,2013-02-17 02:35:00
8:55 PM,30.2,23.0,75,30.04,10.0,SE,12.7,-,N/A,,Overcast,140,2013-02-17 02:55:00
9:15 PM,30.2,23.0,75,30.03,10.0,SSE,10.4,16.1,N/A,,Overcast,150,2013-02-17 03:15:00
9:35 PM,30.2,23.0,75,30.03,10.0,SSE,10.4,-,N/A,,Overcast,150,2013-02-17 03:35:00
9:55 PM,30.2,23.0,75,30.03,10.0,SSE,11.5,-,N/A,,Overcast,150,2013-02-17 03:55:00
10:15 PM,28.4,23.0,80,30.03,10.0,SE,10.4,-,N/A,,Mostly Cloudy,140,2013-02-17 04:15:00
10:35 PM,28.4,23.0,80,30.02,10.0,SSE,10.4,-,N/A,,Clear,150,2013-02-17 04:35:00
10:55 PM,28.4,23.0,80,30.02,10.0,SSE,9.2,-,N/A,,Clear,150,2013-02-17 04:55:00
11:15 PM,26.6,23.0,86,30.01,10.0,SSE,10.4,-,N/A,,Clear,150,2013-02-17 05:15:00
11:35 PM,26.6,21.2,80,30.01,10.0,SE,9.2,-,N/A,,Clear,140,2013-02-17 05:35:00
11:55 PM,26.6,21.2,80,30.01,10.0,SSE,8.1,-,N/A,,Clear,150,2013-02-17 05:55:00